AirNav   Air Wisconsin pilot careers
 
 997 users online  

7XS0 Polly Ranch Airport
Friendswood, Texas, USA

GOING TO FRIENDSWOOD?


FAA INFORMATION EFFECTIVE 11 OCTOBER 2018

Location

FAA Identifier: 7XS0
Lat/Long: 29-30-16.8390N / 095-10-31.7580W
29-30.280650N / 095-10.529300W
29.5046775 / -95.1754883
(estimated)
Elevation: 24 ft. / 7.3 m (surveyed)
Variation: 06E (1985)
From city: 3 miles SE of FRIENDSWOOD, TX
Time zone: UTC -5 (UTC -6 during Standard Time)
Zip code: 77546

Airport Operations

Airport use: Private use. Permission required prior to landing
Activation date: 03/1977
Control tower: no
ARTCC: HOUSTON CENTER
FSS: MONTGOMERY COUNTY FLIGHT SERVICE STATION
Attendance: UNATNDD
Wind indicator: yes
Segmented circle: no
Lights: SS-SR
Landing fee: yes

Airport Communications

WX ASOS at LVJ (4 nm W): 118.525 (281-992-1853)
WX ASOS at HOU (10 nm NW): PHONE 713-847-1462
WX AWOS-3 at AXH (16 nm W): 123.625 (281-431-6572)

Nearby radio navigation aids

VOR radial/distance  VOR name  Freq  Var
HUBr145/10.5HOBBY VOR/DME117.1005E
VUHr305/21.4SCHOLES VOR/DME113.0006E
MHFr257/22.5TRINITY VOR/DME113.6007E
IAHr157/28.5HUMBLE VORTAC116.6005E

 
NDB name  Hdg/Dist  Freq  Var  ID
GALVESTON287/24.220608EGLS --. .-.. ...
NIXIN171/29.432605EBVP -... ...- .--.

Airport Services

Runway Information

Runway 11/29

Dimensions: 2700 x 22 ft. / 823 x 7 m
Surface: asphalt
Runway edge lights: low intensity
RUNWAY 11  RUNWAY 29
Traffic pattern: leftleft
Displaced threshold: 300 ft.300 ft.
Obstructions: none50 ft. trees, 500 ft. from runway

Airport Ownership and Management from official FAA records

Ownership: Privately-owned
Owner: POLLY RANCH HOME OWNERS ASSOC
PO BOX 161
FRIENDSWOOD, TX 77546
Phone 713-482-6430
Manager: GAYLON KOENNING
2306 BUTLER DR
FRIENDSWOOD, TX 77546
Phone (713) 503-2055

Airport Operational Statistics

Aircraft based on the field: 36
Single engine airplanes: 30
Multi engine airplanes: 6
    

Additional Remarks

TO OBTAIN IFR CLEARANCE, CALL HOUSTON TRACON (I90) 1-281-443-5844.
FOR FLT PLAN FILING CALL MONTGOMERY CO. (CXO) FSS 1-800-WXBRIEF/1800-992-7433.

Instrument Procedures

There are no published instrument procedures at 7XS0.

Some nearby airports with instrument procedures:

KLVJ - Pearland Regional Airport (4 nm W)
KEFD - Ellington Airport (6 nm N)
KHOU - William P Hobby Airport (10 nm NW)
T41 - La Porte Municipal Airport (11 nm NE)
KAXH - Houston Southwest Airport (16 nm W)
 
Loc | Ops | Rwys | IFR | FBO | Links
Com | Nav | Svcs | Stats | Notes


 
Area around 7XS0 (Polly Ranch Airport)
 
Road maps at: MapQuest Bing Google
 
Aerial photo
WARNING: Photo may not be current or correct
Aerial photo of 7XS0 (Polly Ranch Airport)
Do you have a better or more recent aerial photo of Polly Ranch Airport that you would like to share? If so, please send us your photo.

 
Sectional chart

 
Airport distance calculator
Flying to Polly Ranch Airport? Find the distance to fly.

From to 7XS0

Sunrise and sunset
Times for 20-Oct-2018
 Local
(UTC-5)
 Zulu
(UTC)
Morning civil twilight07:0212:02
Sunrise07:2612:26
Sunset18:4523:45
Evening civil twilight19:0900:09

Current date and time
Zulu (UTC)  20-Oct-2018 20:27:14
Local (UTC-5)  20-Oct-2018 15:27:14
 
METAR
KLVJ 
4nm W 
201953Z AUTO 01009KT 10SM OVC011 23/21 A3006 RMK AO2 SLP180 T02280206
KEFD 
6nm N 
201950Z 36010KT 8SM OVC010 22/18 A3008
KHOU 
10nm NW 
201953Z 35014KT 10SM BKN011 23/19 A3006 RMK AO2 SLP182 T02280189
KAXH 
16nm W 
202015Z AUTO 36008KT 10SM OVC013 22/20 A3007 RMK AO2 T02220196
TAF
KEFD 
6nm N 
201610Z 2016/2118 36006KT 9999 BKN008 OVC080 QNH3004INS BECMG 2019/2020 36012KT 9999 BKN020 OVC050 QNH3004INS BECMG 2105/2106 03012KT 9999 FEW050 BKN250 QNH3015INS TX23/2020Z TN15/2112Z
KHOU 
10nm NW 
201727Z 2018/2118 35010KT P6SM VCSH OVC008 FM202000 01011KT P6SM BKN015 BKN040 FM210300 02011KT P6SM BKN025 BKN250 FM210800 02008KT P6SM SCT040 SCT250 FM211300 04013KT P6SM SCT250 FM211500 04015KT P6SM BKN250
NOTAMs
Click for the latest NOTAMs
NOTAMs are issued by the DoD/FAA and will open in a separate window not controlled by AirNav.

 

 
 

Would you like to see your business listed on this page?

 If your business provides an interesting product or service to pilots, flight crews, aircraft, or users of the Polly Ranch Airport, you should consider listing it here.  To start the listing process, click on the button below
 
Add a business
 

Other Pages about Polly Ranch Airport

www.pollyranch.com
 
Update a link
 
Copyright © AirNav, LLC. All rights reserved. Privacy Policy  Contact